VA6NA Weather Reports


time (UTC)temp
C
wind
direction
speed
KPH
gust
KPH
rain 1hr
cm
rain 24hr
cm
rain mn
cm
humidity
%
barometer
mb
20260504081018 5 0.0 0.0 0.00 0.00 0.00 73 1019.2
20260504050022 10 0.0 0.0 0.00 0.00 0.00 50 1017.3
20260504045042 10 0.0 0.0 0.00 0.00 0.00 50 1017.3
20260504044024 10 0.0 0.0 0.00 0.00 0.00 50 1017.2
20260504043020 10 0.0 0.0 0.00 0.00 0.00 50 1017.1
20260504042015 10 0.0 0.0 0.00 0.00 0.00 49 1017.1
20260504041030 10 0.0 0.0 0.00 0.00 0.00 48 1016.9
20260504040031 10 0.0 0.0 0.00 0.00 0.00 47 1016.7
20260504035031 11 0.0 0.0 0.00 0.00 0.00 46 1016.5
20260504034033 11 0.0 0.0 0.00 0.00 0.00 45 1016.4
20260504033029 11 0.0 0.0 0.00 0.00 0.00 43 1016.2
20260504032043 11 0.0 0.0 0.00 0.00 0.00 43 1016.0
20260504031019 12 0.0 0.0 0.00 0.00 0.00 42 1015.8
20260504030110 12 0.0 0.0 0.00 0.00 0.00 42 1015.5
20260504025028 12 0.0 0.0 0.00 0.00 0.00 41 1015.5
20260504024030 12 0.0 0.0 0.00 0.00 0.00 40 1015.5
20260504023111 13 0.0 1.6 0.00 0.00 0.00 40 1015.5
20260504022031 13 0.0 0.0 0.00 0.00 0.00 43 1015.5
20260504021033 13 0.0 0.0 0.00 0.00 0.00 46 1015.3
20260504020028 13 0.0 0.0 0.00 0.00 0.00 46 1015.3
20260504015024 13 0.0 0.0 0.00 0.00 0.00 46 1015.3
20260504014026 13 0.0 0.0 0.00 0.00 0.00 46 1015.3
20260504013026 13 0.0 0.0 0.00 0.00 0.00 45 1015.2
20260504012047 13 0.0 0.0 0.00 0.00 0.00 44 1015.2
20260504011042 14 0.0 0.0 0.00 0.00 0.00 43 1015.0
20260504010018 14 0.0 0.0 0.00 0.00 0.00 42 1014.8
20260504005031 15 0.0 0.0 0.00 0.00 0.00 42 1014.5
20260504004032 15 0.0 0.0 0.00 0.00 0.00 42 1014.5
20260504003034 15 0.0 0.0 0.00 0.00 0.00 43 1014.5
20260504002016 15 0.0 0.0 0.00 0.00 0.00 45 1014.4
20260504001017 15 0.0 0.0 0.00 0.00 0.00 45 1014.4
20260504000038 15 0.0 0.0 0.00 0.00 0.00 46 1014.3
20260503235112 15 0.0 0.0 0.00 0.00 0.00 46 1014.1
20260503234016 15 0.0 0.0 0.00 0.00 0.00 46 1014.2
20260503233029 15 0.0 0.0 0.00 0.00 0.00 46 1014.2
20260503232029 15 0.0 0.0 0.00 0.00 0.00 45 1014.1
20260503231025 15 0.0 0.0 0.00 0.00 0.00 44 1014.0
20260503230020 15 0.0 0.0 0.00 0.00 0.00 43 1013.9
20260503225021 15 0.0 0.0 0.00 0.00 0.00 43 1013.9
20260503224042 16 0.0 0.0 0.00 0.00 0.00 43 1013.6
20260503223022 16 0.0 0.0 0.00 0.00 0.00 42 1013.4
20260503222024 16 0.0 0.0 0.00 0.00 0.00 40 1013.4
20260503221025 16 0.0 0.0 0.00 0.00 0.00 40 1013.4
20260503220025 16 0.0 0.0 0.00 0.00 0.00 41 1013.4
20260503215027 16 0.0 0.0 0.00 0.00 0.00 41 1013.2
20260503214023 16 0.0 0.0 0.00 0.00 0.00 41 1013.2
20260503213017 16 0.0 0.0 0.00 0.00 0.00 41 1013.3
20260503212038 16 0.0 0.0 0.00 0.00 0.00 41 1013.4
20260503211024 16 0.0 0.0 0.00 0.00 0.00 41 1013.4
20260503210040 16 0.0 0.0 0.00 0.00 0.00 41 1013.4
20260503205016 16 0.0 0.0 0.00 0.00 0.00 41 1013.4
20260503204023 16 0.0 0.0 0.00 0.00 0.00 41 1013.4
20260503203024 16 0.0 0.0 0.00 0.00 0.00 41 1013.4
20260503202025 16 0.0 0.0 0.00 0.00 0.00 41 1013.4
20260503201026 16 0.0 0.0 0.00 0.00 0.00 41 1013.4
20260503200026 16 0.0 0.0 0.00 0.00 0.00 41 1013.2
20260503195048 16 0.0 0.0 0.00 0.00 0.00 40 1013.2
20260503194024 17 0.0 0.0 0.00 0.00 0.00 40 1013.0
20260503193038 17 0.0 0.0 0.00 0.00 0.00 40 1013.0
20260503192019 17 0.0 0.0 0.00 0.00 0.00 39 1012.9
20260503191048 17 0.0 0.0 0.00 0.00 0.00 38 1013.0
20260503190021 17 0.0 0.0 0.00 0.00 0.00 40 1012.9
20260503185017 18 0.0 0.0 0.00 0.00 0.00 39 1012.9
20260503184024 18 0.0 0.0 0.00 0.00 0.00 38 1012.9
20260503183024 18 0.0 0.0 0.00 0.00 0.00 38 1012.9
20260503182026 18 0.0 0.0 0.00 0.00 0.00 39 1012.9
20260503181047 18 0.0 0.0 0.00 0.00 0.00 38 1012.9
20260503180027 18 0.0 0.0 0.00 0.00 0.00 39 1012.8
20260503175029 18 0.0 0.0 0.00 0.00 0.00 41 1013.0
20260503174025 18 0.0 0.0 0.00 0.00 0.00 41 1012.9
20260503173026 18 0.0 0.0 0.00 0.00 0.00 40 1012.8
20260503172027 18 0.0 0.0 0.00 0.00 0.00 40 1012.8
20260503171047 18 0.0 0.0 0.00 0.00 0.00 40 1012.8
20260503131019 13 0.0 0.0 0.00 0.00 0.00 53 1011.8